GOMX4-A

导读 | 星芒AI

GOMX-4A 是一颗由阿根廷国家航天委员会(CONAE)与加拿大公司 Exact Earth 合作开发的立方星,主要用于验证卫星间通信和数据中继技术。该卫星于2018年发射,作为GOMX-4任务的一部分,与GOMX-4B组成星座,旨在测试低轨卫星之间的自动数据传输能力。GOMX-4A 还搭载了用于地球观测和实验的传感器,为未来更复杂的卫星任务提供技术支持和经验积累。

基本信息
目录编号:
43197
目录名称:
GOMX4-A
国际标识:
2018-015F
轨道中心:
EARTH
卫星名称:
GOMX4-A
卫星全名:
--
卫星状态:
已陨落 最后检测时间 2024-08-18
发射日期:
2018-02-02 UTC
国别 :
丹麦 (DK)
星等 :
--
轨道信息
数据来源 国际轨道数据
星历时间: 2024-08-19T05:52:07+0800
轨道信息已过期481天
半长轴: 6531.16km
偏心率: 0.0009227
轨道倾角: 97.570°
近地点辐角 255.652°
升交点赤经 57.656°
平近点角 104.376°
近地点: 146.998km
远地点: 159.052km
周期: 87.548分钟
每日圈数: 16.448161
详细信息
使用方式:
暂无